O'Neill, NE

6:56 AM CST on January 24, 2018 (GMT -0600)
The O'Neill Municipal-Baker

Weather History for KONL - June, 2013

Change the Weather History Date:

Saturday, June 29, 2013

  Actual Average Record
Temperature  
Mean Temperature 70 °F -  
Max Temperature 81 °F 87 °F 100 °F (1970)
Min Temperature 60 °F 60 °F 46 °F (2000)
Cooling Degree Days 5    
Growing Degree Days 20 (Base 50)    
Moisture  
Dew Point 53 °F    
Average Humidity 58    
Maximum Humidity 77    
Minimum Humidity 34    
Precipitation  
Precipitation 0.00 in - - ()
Sea Level Pressure  
Sea Level Pressure 30.05 in    
Wind  
Wind Speed 10 mph (NNW)    
Max Wind Speed 21 mph    
Max Gust Speed 26 mph    
Visibility 10 miles    
Events      
Averages and records for this station are not official NWS values.
T = Trace of Precipitation, MM = Missing Value Source: NWS Daily Summary

Daily Weather History Graph

Daily Weather History Graph

Search for Another Location

Airport or City:

Trip Planner

Search our weather history database for the weather conditions in past years. The results will help you decide how hot, cold, wet, or windy it might be!

Date:

Astronomy

Jun. 29, 2013 Rise Set
Actual Time 6:00 AM CDT 9:15 PM CDT
Civil Twilight 5:25 AM CDT 9:50 PM CDT
Nautical Twilight 4:40 AM CDT 10:35 PM CDT
Astronomical Twilight 3:46 AM CDT 11:30 PM CDT
Moon 12:36 AM CDT (6/29) 1:23 PM CDT (6/29)
Length of Visible Light 16h 24m
Length of Day
15h 15m
Waning Gibbous, 55% of the Moon is Illuminated
Jun 29
Waning Gibbous
Jun 29
Last Quarter
Jul 8
New
Jul 15
First Quarter
Jul 22
Full

Hourly Weather History & Observations

Time (CDT) Temp. Dew Point Humidity Pressure Visibility Wind Dir Wind Speed Gust Speed Precip Events Conditions
12:15 AM 66.2 °F 55.4 °F 68% 30.04 in 10.0 mi NW 6.9 mph - N/A   Clear
12:35 AM 66.4 °F 55.4 °F 68% 30.04 in 10.0 mi NW 8.1 mph - N/A   Clear
1:16 AM 64.4 °F 55.4 °F 73% 30.04 in 10.0 mi WNW 6.9 mph - N/A   Clear
1:35 AM 64.4 °F 55.4 °F 73% 30.04 in 10.0 mi WNW 6.9 mph - N/A   Clear
1:57 AM 62.6 °F 55.4 °F 77% 30.04 in 10.0 mi WNW 5.8 mph - N/A   Clear
2:38 AM 62.6 °F 55.4 °F 77% 30.04 in 10.0 mi West 8.1 mph - N/A   Clear
2:56 AM 62.6 °F 55.4 °F 77% 30.04 in 10.0 mi WNW 9.2 mph - N/A   Clear
3:18 AM 62.6 °F 55.4 °F 77% 30.05 in 10.0 mi WNW 9.2 mph - N/A   Clear
3:36 AM 62.6 °F 55.4 °F 77% 30.05 in 10.0 mi WNW 9.2 mph - N/A   Clear
4:16 AM 62.6 °F 53.6 °F 72% 30.05 in 10.0 mi WNW 8.1 mph - N/A   Clear
4:36 AM 62.6 °F 55.4 °F 77% 30.05 in 10.0 mi WNW 6.9 mph - N/A   Scattered Clouds
4:55 AM 61.7 °F 54.1 °F 76% 30.05 in 10.0 mi WNW 6.9 mph - N/A   Scattered Clouds
4:56 AM 62.6 °F 53.6 °F 72% 30.05 in 10.0 mi WNW 6.9 mph - N/A   Scattered Clouds
5:18 AM 62.6 °F 53.6 °F 72% 30.06 in 10.0 mi NW 8.1 mph - N/A   Scattered Clouds
5:37 AM 60.8 °F 53.6 °F 77% 30.06 in 10.0 mi NW 9.2 mph - N/A   Scattered Clouds
5:56 AM 62.6 °F 53.6 °F 72% 30.06 in 10.0 mi NW 9.2 mph - N/A   Scattered Clouds
6:16 AM 62.6 °F 53.6 °F 72% 30.07 in 10.0 mi NW 10.4 mph - N/A   Scattered Clouds
6:55 AM 62.6 °F 53.6 °F 72% 30.06 in 10.0 mi WNW 10.4 mph - N/A   Clear
7:15 AM 64.4 °F 53.6 °F 68% 30.07 in 10.0 mi NW 9.2 mph - N/A   Clear
7:35 AM 64.4 °F 55.4 °F 73% 30.07 in 10.0 mi NW 11.5 mph - N/A   Scattered Clouds
8:15 AM 66.2 °F 55.4 °F 68% 30.08 in 10.0 mi NW 13.8 mph 17.3 mph N/A   Clear
8:35 AM 69.8 °F 55.4 °F 60% 30.07 in 10.0 mi NNW 12.7 mph 17.3 mph N/A   Clear
8:55 AM 69.8 °F 55.4 °F 60% 30.07 in 10.0 mi NNW 11.5 mph 17.3 mph N/A   Clear
9:15 AM 71.6 °F 54.0 °F 54% 30.07 in 10.0 mi NNW 11.5 mph - N/A   Clear
9:36 AM 73.4 °F 53.6 °F 50% 30.07 in 10.0 mi NNW 16.1 mph 20.7 mph N/A   Clear
9:55 AM 75.2 °F 53.6 °F 47% 30.07 in 10.0 mi NNW 16.1 mph 21.9 mph N/A   Clear
11:16 AM 77.0 °F 51.8 °F 41% 30.07 in 10.0 mi NNW 20.7 mph 25.3 mph N/A   Clear
11:38 AM 78.8 °F 48.2 °F 34% 30.07 in 10.0 mi NNW 19.6 mph 25.3 mph N/A   Scattered Clouds
1:38 PM 78.8 °F 48.2 °F 34% 30.06 in 10.0 mi North 18.4 mph 26.5 mph N/A   Scattered Clouds
2:55 PM 78.8 °F 48.9 °F 35% 30.06 in 10.0 mi North 19.6 mph 26.5 mph N/A   Mostly Cloudy
3:55 PM 78.8 °F 48.2 °F 34% 30.05 in 10.0 mi North 17.3 mph 21.9 mph N/A   Overcast
4:15 PM 78.8 °F 48.2 °F 34% 30.05 in 10.0 mi NNW 20.7 mph 26.5 mph N/A   Overcast
4:55 PM 80.6 °F 51.8 °F 37% 30.04 in 10.0 mi North 13.8 mph 21.9 mph N/A   Overcast
5:15 PM 78.8 °F 50.0 °F 36% 30.04 in 10.0 mi North 18.4 mph 23.0 mph N/A   Overcast
5:35 PM 80.6 °F 50.0 °F 34% 30.04 in 10.0 mi North 17.3 mph 23.0 mph N/A   Mostly Cloudy
5:55 PM 78.8 °F 48.2 °F 34% 30.04 in 10.0 mi North 15.0 mph 20.7 mph N/A   Mostly Cloudy
6:15 PM 78.8 °F 48.2 °F 34% 30.03 in 10.0 mi North 16.1 mph 21.9 mph N/A   Scattered Clouds
6:35 PM 78.8 °F 48.2 °F 34% 30.03 in 10.0 mi North 17.3 mph 21.9 mph N/A   Scattered Clouds
6:55 PM 78.8 °F 51.8 °F 39% 30.03 in 10.0 mi North 12.7 mph - N/A   Scattered Clouds
7:15 PM 77.0 °F 52.7 °F 43% 30.03 in 10.0 mi North 13.8 mph 19.6 mph N/A   Clear
7:17 PM 77.0 °F 53.6 °F 44% 30.03 in 10.0 mi North 13.8 mph 19.6 mph N/A   Clear
7:35 PM 77.0 °F 53.6 °F 44% 30.03 in 10.0 mi North 10.4 mph - N/A   Clear
7:55 PM 75.2 °F 51.8 °F 44% 30.04 in 10.0 mi North 13.8 mph - N/A   Clear
8:15 PM 73.4 °F 53.6 °F 50% 30.04 in 10.0 mi North 9.2 mph - N/A   Clear
8:35 PM 73.4 °F 53.6 °F 50% 30.04 in 10.0 mi North 9.2 mph - N/A   Clear
9:15 PM 69.8 °F 53.6 °F 56% 30.04 in 10.0 mi North 6.9 mph - N/A   Clear
9:35 PM 68.0 °F 53.6 °F 60% 30.04 in 10.0 mi North 5.8 mph - N/A   Clear
9:55 PM 66.2 °F 55.4 °F 68% 30.05 in 10.0 mi North 5.8 mph - N/A   Clear
10:35 PM 62.6 °F 55.4 °F 77% 30.07 in 10.0 mi NNW 4.6 mph - N/A   Clear
10:57 PM 62.6 °F 55.4 °F 77% 30.07 in 10.0 mi NNW 6.9 mph - N/A   Clear
11:15 PM 62.6 °F 55.4 °F 77% 30.07 in 10.0 mi NNW 6.9 mph - N/A   Clear